Regional Weather Roundup
Issued by NWS

Home | Current Version | Previous Version | Text Only | Print | Product List | Glossary On
Versions: 1 2 3 4 5 6 7 8 9 10 11 12 13 14 15 16 17 18 19 20 21 22 23 24 25 26 27 28 29 30 31 32 33 34 35 36 37 38 39 40 41 42 43 44 45 46 47 48 49 50
000
ASUS43 KDTX 262210
RWRMI
MICHIGAN HOURLY REGIONAL WEATHER ROUNDUP
NATIONAL WEATHER SERVICE DETROIT/PONTIAC MI
600 PM EDT SUN APR 26 2015

NOTE: "FAIR" INDICATES FEW OR NO CLOUDS BELOW 12,000 FEET WITH NO
SIGNIFICANT WEATHER AND/OR OBSTRUCTION TO VISIBILITY.

MIZ047>049-052>055-059>063-066>070-074>076-081>083-262300-
SOUTHEAST LOWER MICHIGAN

CITY           SKY/WX    TMP DP  RH WIND       PRES   REMARKS
ADRIAN         MOSUNNY   57  29  34 N16       29.89S
ALMA           CLOUDY    57  26  30 N7G16     29.91S
ANN ARBOR      SUNNY     56  28  34 N13       29.89S
BAD AXE        SUNNY     47  31  53 NE12      29.93S
DETROIT CITY   CLOUDY    53  30  41 NE14      29.90R
DETROIT        PTSUNNY   56  30  37 N13G18    29.89S
FLINT          CLOUDY    56  29  35 N12       29.91F
GROSSE ILE     CLOUDY    55  28  35 N10       29.87S
HILLSDALE      MOSUNNY   55  28  35 N9        29.90R
HOWELL         SUNNY     55  28  34 N8        29.90S

CITY           SKY/WX    TMP DP  RH WIND       PRES   REMARKS
JACKSON        PTSUNNY   56  28  34 N10       29.90S
LAMBERTVILLE   PTSUNNY   55  28  35 N10       29.88S
LANSING        CLOUDY    56  28  34 N8        29.91S
LAPEER         NOT AVBL
MASON          CLOUDY    56  28  33 NW12G20   29.89F
MONROE         PTSUNNY   57  28  33 CALM      29.87S
MT. CLEMENS    PTSUNNY   51  34  51 NE13      29.88R
PONTIAC        MOSUNNY   55  28  35 N10G21    29.89S
PORT HOPE        N/A     42  35  76 N6        29.92F
PORT HURON     MOSUNNY   48  32  53 N14G22    29.92S
TRI CITIES     CLOUDY    56  31  38 NE8       29.92F
YPSILANTI      PTSUNNY   61  31  32 N16G22    29.89S
$$
MIZ043>046-050>051-056>058-064>065-071>073-077>080-262300-
SOUTHWEST LOWER MICHIGAN

CITY           SKY/WX    TMP DP  RH WIND       PRES   REMARKS
BATTLE CREEK   MOSUNNY   57  28  33 NW12      29.91F
BENTON HARBOR  SUNNY     46  29  51 N10G20    29.97F
BIG RAPIDS     MOSUNNY   55  25  31 N15G23    29.93R
COLDWATER      MOSUNNY   56  28  34 NE10      29.90S
HOLLAND        SUNNY     55  30  38 NW13      29.96S
GRAND RAPIDS   PTSUNNY   60  27  28 N13       29.91S
KALAMAZOO      CLOUDY    58  30  34 N14       29.91F
MARSHALL       MOSUNNY   56  29  34 N8        29.90S
MUSKEGON       MOSUNNY   56  26  31 NW13      29.96S
$$
MIZ016>042-262300-
NORTHERN LOWER MICHIGAN

CITY           SKY/WX    TMP DP  RH WIND       PRES   REMARKS
ALPENA         MOSUNNY   51  31  46 NW17      29.96S
BEAVER ISLAND  MOSUNNY   49  31  48 N14G21    30.03S
BELLAIRE       CLOUDY    51  31  45 N10G18    30.00S
CADILLAC       SUNNY     50  29  44 N15G21    29.96S
CHARLEVOIX     PTSUNNY   44  33  66 N13G20    30.04S
FRANKFORT      PTCLDY    51  27  39 N12G17    30.02S
GAYLORD        CLOUDY    48  30  49 NW8       29.96S
GRAYLING       CLOUDY    51  29  42 NW10G18   29.96S
HARBOR SPRINGS CLOUDY    49  32  51 N9G18     29.99S
HOUGHTON LAKE  CLOUDY    51  27  39 N13       29.94S
MANISTEE       PTSUNNY   48  28  46 N13       30.02S
OSCODA         CLOUDY    51  34  52 NE13G18   29.92S
PELLSTON       PTSUNNY   51  33  50 NW16      30.00S
TRAVERSE CITY  MOSUNNY   50  30  46 N12G22    29.99F
$$
MIZ007>008-015-262300-
EASTERN UPPER MICHIGAN

CITY           SKY/WX    TMP DP  RH WIND       PRES   REMARKS
KINROSS        CLOUDY    45  30  57 NW20G25   29.99S
MACKINAC ISLAN CLOUDY    50  32  50 N13G21    29.99S
NEWBERRY       CLOUDY    43  31  62 NW13G23   30.04S
S. S. MARIE    CLOUDY    40  31  70 NW10      30.00S
$$
MIZ004>006-011>014-085-262300-
CENTRAL UPPER MICHIGAN

CITY           SKY/WX    TMP DP  RH WIND       PRES   REMARKS
MANISTIQUE     PTSUNNY   47  32  55 N14G23    30.05R
ESCANABA       SUNNY     52  30  43 NE15G22   30.06R
MENOMINEE      SUNNY     50  32  50 E20       30.02F
$$
MIZ001>003-009>011-084-262300-
WESTERN UPPER MICHIGAN

CITY           SKY/WX    TMP DP  RH WIND       PRES   REMARKS
IRON MOUNTAIN  SUNNY     57  27  31 NE8G20    30.04S
HOUGHTON       SUNNY     49  26  41 N13       30.13S
COPPER HARBOR    N/A     45  30  55 N14       30.12F
IRONWOOD       SUNNY     46  28  49 N9        30.12F
$$

ABBREVIATIONS USED IN REMARKS
   TC - TEMPERATURE IN CELSIUS
  WCI - WIND CHILL INDEX
   HX - HEAT INDEX
  VSB - VISIBILITY




USA.gov is the U.S. government's official web portal to all federal, state and local government web resources and services.